Historique des stations

Station météo de Boisseaux

Altitude de la station : 132 m







Données météorologiques pour le 08/12/2022
Date
Heure
Températures Humidité Point de rosée Vitesse
du vent
Direction Rafales Windchill Pression Pluviométrie
Cumul
Date
Heure
Températures Humidité Point de rosée Vitesse
du vent
Direction Rafales Windchill Pression Pluviométrie
Cumul
08/12/2022 16:152.2 °C91 %1.1 °C2 km/hONO6 km/h1.7 1009 hPa-
08/12/2022 16:042.2 °C91 %1.1 °C-SE2 km/h2.2 1010 hPa-
08/12/2022 16:002.2 °C90 %0.6 °C-SE6 km/h2.2 1010 hPa-
08/12/2022 15:492.2 °C90 %0.6 °C-SE3 km/h2.2 1010 hPa-
08/12/2022 15:452.3 °C90 %1.1 °C-ESE6 km/h2.2 1010 hPa-
08/12/2022 15:342.3 °C90 %1.1 °C-NE6 km/h2.2 1010 hPa-
08/12/2022 15:302.3 °C91 %1.1 °C-NNE6 km/h2.2 1010 hPa-
08/12/2022 15:192.3 °C90 %1.1 °C-ESE3 km/h2.2 1010 hPa-
08/12/2022 15:162.3 °C90 %1.1 °C-ESE6 km/h2.2 1010 hPa-
08/12/2022 15:042.6 °C91 %1.1 °C-SE3 km/h2.8 1010 hPa-
08/12/2022 15:012.6 °C91 %1.1 °C-ESE6 km/h2.8 1010 hPa-
08/12/2022 14:502.5 °C90 %1.1 °C-SSE5 km/h2.8 1010 hPa-
08/12/2022 14:462.6 °C90 %1.1 °C5 km/hS6 km/h1.7 1010 hPa-
08/12/2022 14:342.7 °C91 %1.7 °C2 km/hSSE6 km/h2.2 1010 hPa-
08/12/2022 14:312.7 °C91 %1.7 °C2 km/hSSE6 km/h2.2 1010 hPa-
08/12/2022 14:192.6 °C91 %1.1 °C-SE6 km/h2.8 1010 hPa-
08/12/2022 14:162.6 °C91 %1.1 °C2 km/hSSE6 km/h2.2 1011 hPa-
08/12/2022 14:042.7 °C91 %1.7 °C---2.8 1011 hPa-
08/12/2022 14:012.7 °C91 %1.7 °C-ESE5 km/h2.8 1011 hPa-
08/12/2022 13:492.6 °C91 %1.1 °C-SE5 km/h2.8 1011 hPa-
08/12/2022 13:462.5 °C91 %1.1 °C-SE5 km/h2.8 1011 hPa-
08/12/2022 13:342.5 °C91 %1.1 °C2 km/hESE5 km/h2.2 1011 hPa-
08/12/2022 13:312.6 °C91 %1.1 °C2 km/hESE5 km/h2.2 1011 hPa-
08/12/2022 13:192.6 °C92 %1.7 °C-SE3 km/h2.8 1011 hPa-
08/12/2022 13:162.6 °C92 %1.7 °C3 km/hESE5 km/h1.7 1011 hPa-
08/12/2022 13:042.3 °C93 %1.1 °C-ESE2 km/h2.2 1011 hPa-
08/12/2022 13:012.2 °C93 %1.1 °C-ESE5 km/h2.2 1011 hPa-
08/12/2022 12:502.2 °C93 %1.1 °C-ESE5 km/h2.2 1011 hPa-
08/12/2022 12:462.3 °C93 %1.1 °C3 km/hESE5 km/h1.1 1011 hPa-
08/12/2022 12:342.2 °C93 %1.1 °C-SE5 km/h2.2 1012 hPa-
08/12/2022 12:312.2 °C94 %1.1 °C-SE5 km/h2.2 1011 hPa-
08/12/2022 12:192.3 °C94 %1.7 °C3 km/hESE3 km/h1.1 1012 hPa-
08/12/2022 12:162.3 °C95 %1.7 °C-ESE5 km/h2.2 1012 hPa-
08/12/2022 12:042.1 °C95 %1.7 °C-SE2 km/h2.2 1012 hPa-
08/12/2022 12:012.2 °C96 %1.7 °C-SSE5 km/h2.2 1012 hPa-
08/12/2022 11:502.1 °C96 %1.7 °C-ESE3 km/h2.2 1012 hPa-
08/12/2022 11:462.1 °C96 %1.7 °C-SE5 km/h2.2 1012 hPa-
08/12/2022 11:342.1 °C96 %1.7 °C-SE3 km/h2.2 1012 hPa-
08/12/2022 11:312.1 °C97 %1.7 °C-SE5 km/h2.2 1012 hPa-
08/12/2022 11:192.0 °C97 %1.7 °C-SE3 km/h2.2 1012 hPa-
08/12/2022 11:162.0 °C97 %1.7 °C-SE5 km/h2.2 1012 hPa-
08/12/2022 11:052.1 °C97 %1.7 °C-SE2 km/h2.2 1012 hPa-
08/12/2022 11:011.9 °C97 %1.7 °C-SE5 km/h2.2 1012 hPa-
08/12/2022 10:501.8 °C97 %1.7 °C-SE3 km/h1.7 1012 hPa-
08/12/2022 10:461.8 °C97 %1.7 °C-SE5 km/h1.7 1012 hPa-
08/12/2022 10:341.9 °C98 %1.7 °C-E2 km/h1.7 1012 hPa-
08/12/2022 10:311.8 °C98 %1.7 °C-SE5 km/h1.7 1012 hPa-
08/12/2022 10:201.7 °C97 %1.1 °C-E2 km/h1.7 1013 hPa-
08/12/2022 10:161.6 °C97 %1.1 °C-SSO5 km/h1.7 1013 hPa-
08/12/2022 10:041.6 °C98 %1.1 °C-ESE2 km/h1.7 1013 hPa-
08/12/2022 10:011.5 °C98 %1.1 °C-ESE5 km/h1.7 1013 hPa-
08/12/2022 09:491.4 °C98 %1.1 °C-SSO2 km/h1.7 1013 hPa-
08/12/2022 09:451.6 °C98 %1.1 °C-SE5 km/h1.7 1013 hPa-
08/12/2022 09:341.5 °C98 %1.1 °C---1.7 1013 hPa-
08/12/2022 09:301.4 °C98 %1.1 °C-O5 km/h1.7 1013 hPa-
08/12/2022 09:181.3 °C98 %1.1 °C---1.1 1013 hPa-
08/12/2022 09:151.3 °C98 %1.1 °C-O5 km/h1.1 1013 hPa-
08/12/2022 09:021.2 °C98 %1.1 °C---1.1 1013 hPa-
08/12/2022 09:001.2 °C98 %1.1 °C-O5 km/h1.1 1013 hPa-
08/12/2022 08:491.1 °C98 %1.1 °C---1.1 1013 hPa-
08/12/2022 08:451.1 °C98 %1.1 °C-O5 km/h1.1 1013 hPa-
08/12/2022 08:341.1 °C98 %0.6 °C-O2 km/h1.1 1013 hPa-
08/12/2022 08:301.1 °C98 %0.6 °C-O5 km/h1.1 1013 hPa-
08/12/2022 08:190.9 °C98 %0.6 °C---1.1 1013 hPa-
08/12/2022 08:150.9 °C98 %0.6 °C-S5 km/h1.1 1013 hPa-
08/12/2022 08:031.1 °C98 %1.1 °C-ESE2 km/h1.1 1013 hPa-
08/12/2022 08:001.2 °C98 %1.1 °C2 km/hESE5 km/h0.6 1013 hPa-
08/12/2022 07:491.3 °C98 %1.1 °C2 km/hESE3 km/h0.6 1013 hPa-
08/12/2022 07:451.3 °C98 %1.1 °C-SE5 km/h1.1 1013 hPa-
08/12/2022 07:341.4 °C98 %1.1 °C-ESE2 km/h1.7 1013 hPa-
08/12/2022 07:301.4 °C98 %1.1 °C-SSO5 km/h1.7 1013 hPa-
08/12/2022 07:191.5 °C98 %1.1 °C-SSO2 km/h1.7 1013 hPa-
08/12/2022 07:151.6 °C98 %1.1 °C-SSO5 km/h1.7 1013 hPa-
08/12/2022 07:041.7 °C98 %1.7 °C---1.7 1013 hPa-
08/12/2022 07:001.6 °C98 %1.1 °C-SSO5 km/h1.7 1013 hPa-
08/12/2022 06:491.6 °C98 %1.1 °C---1.7 1013 hPa-
08/12/2022 06:451.6 °C98 %1.1 °C-SSO5 km/h1.7 1013 hPa-
08/12/2022 06:341.6 °C98 %1.1 °C---1.7 1013 hPa-
08/12/2022 06:301.6 °C98 %1.1 °C-SSO5 km/h1.7 1013 hPa-
08/12/2022 06:191.6 °C98 %1.1 °C---1.7 1013 hPa-
08/12/2022 06:151.6 °C98 %1.1 °C-SSO5 km/h1.7 1014 hPa-
08/12/2022 06:041.4 °C98 %1.1 °C---1.7 1014 hPa-
08/12/2022 06:001.4 °C98 %1.1 °C-SSO5 km/h1.7 1014 hPa-
08/12/2022 05:491.3 °C98 %1.1 °C---1.1 1014 hPa-
08/12/2022 05:451.3 °C98 %1.1 °C-SSO5 km/h1.1 1014 hPa-
08/12/2022 05:341.2 °C98 %1.1 °C---1.1 1014 hPa-
08/12/2022 05:301.2 °C98 %1.1 °C-SSO5 km/h1.1 1014 hPa-
08/12/2022 05:191.1 °C98 %1.1 °C---1.1 1014 hPa-
08/12/2022 05:150.9 °C98 %0.6 °C-SSE5 km/h1.1 1014 hPa-
08/12/2022 05:040.6 °C98 %0.6 °C---0.6 1014 hPa-
08/12/2022 05:000.5 °C98 %0.0 °C-SSE5 km/h0.6 1014 hPa-
08/12/2022 04:490.5 °C98 %0.0 °C---0.6 1014 hPa-
08/12/2022 04:450.4 °C98 %0.0 °C-SSE5 km/h0.6 1014 hPa-
08/12/2022 04:340.6 °C97 %0.0 °C---0.6 1014 hPa-
08/12/2022 04:300.6 °C97 %0.0 °C-SSE5 km/h0.6 1014 hPa-
08/12/2022 04:190.8 °C97 %0.6 °C-SSE2 km/h1.1 1014 hPa-
08/12/2022 04:150.9 °C97 %0.6 °C-SSE5 km/h1.1 1014 hPa-
08/12/2022 04:041.4 °C97 %1.1 °C-SE2 km/h1.7 1015 hPa-
08/12/2022 04:011.6 °C97 %1.1 °C-ESE5 km/h1.7 1015 hPa-
08/12/2022 03:492.1 °C98 %1.7 °C-ESE2 km/h2.2 1015 hPa-
08/12/2022 03:462.1 °C98 %1.7 °C-SE5 km/h2.2 1015 hPa-
08/12/2022 03:342.4 °C98 %2.2 °C3 km/hSE3 km/h1.1 1015 hPa-
08/12/2022 03:312.4 °C98 %2.2 °C3 km/hESE3 km/h1.1 1015 hPa-
08/12/2022 03:192.4 °C98 %2.2 °C-ONO2 km/h2.2 1015 hPa-
08/12/2022 03:162.4 °C98 %2.2 °C-ONO3 km/h2.2 1015 hPa-
08/12/2022 03:042.4 °C98 %2.2 °C---2.2 1015 hPa-
08/12/2022 03:012.4 °C98 %2.2 °C-ONO3 km/h2.2 1015 hPa-
08/12/2022 02:492.4 °C98 %2.2 °C-ONO2 km/h2.2 1015 hPa-
08/12/2022 02:462.3 °C98 %2.2 °C-ONO3 km/h2.2 1015 hPa-
08/12/2022 02:342.3 °C98 %2.2 °C-O2 km/h2.2 1015 hPa-
08/12/2022 02:312.3 °C98 %2.2 °C-O3 km/h2.2 1015 hPa-
08/12/2022 02:192.3 °C98 %2.2 °C-O2 km/h2.2 1015 hPa-
08/12/2022 02:162.3 °C98 %2.2 °C-O3 km/h2.2 1015 hPa-
08/12/2022 02:042.3 °C98 %2.2 °C---2.2 1015 hPa-
08/12/2022 02:012.3 °C98 %2.2 °C-O3 km/h2.2 1015 hPa-
08/12/2022 01:492.3 °C98 %2.2 °C---2.2 1016 hPa-
08/12/2022 01:462.4 °C98 %2.2 °C-SO3 km/h2.2 1016 hPa-
08/12/2022 01:342.4 °C98 %2.2 °C---2.2 1016 hPa-
08/12/2022 01:312.4 °C98 %2.2 °C-SO3 km/h2.2 1016 hPa-
08/12/2022 01:192.4 °C98 %2.2 °C-SO2 km/h2.2 1016 hPa-
08/12/2022 01:162.4 °C98 %2.2 °C-SO3 km/h2.2 1016 hPa-
08/12/2022 01:052.6 °C98 %2.2 °C-SO2 km/h2.8 1016 hPa-
08/12/2022 01:012.6 °C98 %2.2 °C-SO3 km/h2.8 1016 hPa-
08/12/2022 00:502.7 °C98 %2.2 °C-SSE2 km/h2.8 1016 hPa-
08/12/2022 00:462.7 °C98 %2.2 °C-ESE3 km/h2.8 1016 hPa-
08/12/2022 00:342.7 °C98 %2.2 °C-ESE3 km/h2.8 1016 hPa-
08/12/2022 00:302.7 °C98 %2.2 °C2 km/hESE2 km/h2.2 1016 hPa-
08/12/2022 00:192.7 °C98 %2.2 °C-SSE2 km/h2.8 1016 hPa-
08/12/2022 00:152.7 °C98 %2.2 °C-SO2 km/h2.8 1017 hPa-
08/12/2022 00:032.8 °C98 %2.8 °C---2.8 1017 hPa-
08/12/2022 00:002.8 °C98 %2.8 °C---2.8 1017 hPa-


Minima :

Température : 0.4 °C
Humidité : 90 %
Point de rosée : 0.0 °C
Vent moyen : 2 km/h
Windchill : 0.6
Pression atm. : 1009 hPa
Maxima :

Température : 2.8 °C
Humidité : 98 %
Point de rosée : 2.8 °C
Vent moyen : 5 km/h
Windchill : 2.8
Pression atm. : 1017 hPa
Rafales max : 6 km/h
Cumul de pluie sur 24H : 0 mm

Boisseaux est une commune du département Loiret (45).
La station météorologique du réseau de l'association la plus proche de Boisseaux est celle de Bellegarde



Icône Facebook Association Météo Centre Icône Twitter Association Météo Centre Icône Chaîne Youtube Association Météo Centre Icône contact Association Météo Centre Icône Insta Association Météo Centre